Location: Bastelaar
(51.0950°N, 3.8602°E)
Time: 02:00:27
(UTC+00:00)

ARIANE 6 FM1 Upper Stage - Pass Details

Date: 01 February 2026
Orbit: 522 x 609 km, 62.0° (Epoch: 13 February)

Event Time Altitude Azimuth Distance (km) Brightness Sun altitude
Rises 17:33:10 0° 255° (WSW) 2,695 8.6 -9.3°
Reaches altitude 10° 17:35:33 10° 265° (W) 1,793 6.8 -9.7°
Maximum altitude 17:39:13 33° 331° (NNW) 905 3.9 -10.2°
Drops below altitude 10° 17:42:51 10° 37° (NE) 1,774 4.8 -10.8°
Enters shadow 17:42:59 - 38° (NE) 1,818 4.8 -10.8°
